Location: Unspecified
(33.2407°S, 0.0000°E)
Time: 08:14:25
(UTC+00:00)

BEESAT - Visible Passes

Search period start: 20 July 2019 00:00
Search period end: 30 July 2019 00:00
Orbit: 700 x 710 km, 98.6° (Epoch: 19 July)

Date Brightness Start Highest point End Pass type
(mag) Time Alt. Az. Time Alt. Az. Time Alt. Az.
20 Jul ? 04:39:37 10° SSE 04:44:16 45° E 04:48:50 10° N visible
20 Jul ? 06:18:38 10° SSW 06:21:34 16° WSW 06:24:29 10° WNW visible
21 Jul ? 03:48:18 10° ESE 03:49:39 11° E 03:51:00 10° ENE visible
21 Jul ? 05:22:56 10° S 05:27:42 60° WSW 05:32:25 10° NNW visible
22 Jul ? 04:29:02 10° SSE 04:33:25 34° E 04:37:44 10° NNE visible
22 Jul ? 06:07:18 10° SSW 06:10:53 21° WSW 06:14:26 10° WNW visible
23 Jul ? 05:12:04 10° S 05:16:56 80° WSW 05:21:43 10° NNW visible
24 Jul ? 04:18:34 10° SE 04:22:33 25° E 04:26:30 10° NNE visible
24 Jul ? 05:56:08 10° SSW 06:00:11 27° WSW 06:04:11 10° NW visible
25 Jul ? 05:01:17 10° SSE 05:06:08 78° ENE 05:10:54 10° N visible
25 Jul ? 17:43:50 10° WNW 17:45:45 12° W 17:47:40 10° WSW visible
26 Jul ? 04:08:14 10° SE 04:11:41 19° E 04:15:06 10° NE visible
26 Jul ? 05:45:04 10° S 05:49:28 35° WSW 05:53:48 10° NW visible
27 Jul ? 04:50:33 10° SSE 04:55:20 58° E 05:00:02 10° N visible
28 Jul ? 03:58:09 10° ESE 04:00:47 15° E 04:03:23 10° NE visible
28 Jul ? 05:34:05 10° S 05:38:43 46° WSW 05:43:16 10° NW visible
29 Jul ? 04:39:53 10° SSE 04:44:30 43° E 04:49:02 10° N visible
29 Jul ? 06:18:49 10° SSW 06:21:50 17° WSW 06:24:49 10° WNW visible
